Location: Clarion
(42.7316°N, 93.7330°W)
Time: 08:43:11
(UTC+00:00)

IDEFIX/ARIANE 42P - Pass Details

Date: 22 April 2026
Orbit: 780 x 797 km, 98.6° (Epoch: 17 May)

Event Time Altitude Azimuth Distance (km) Brightness Sun altitude
Rises 08:33:02 0° 7° (N) 3,280 6.7 -26.4°
Reaches altitude 10° 08:35:25 10° 2° (N) 2,349 5.7 -26.1°
Enters shadow 08:40:10 45° 296° (WNW) 1,060 3.0 -25.6°
